Weather History for Jefferson, NC

Change the Weather History Date:

Saturday, December 22, 2012

  Actual Average Record
Temperature  
Mean Temperature 30 °F -  
Max Temperature 39 °F 44 °F 63 °F (1990)
Min Temperature 21 °F 24 °F -3 °F (1989)
Degree Days  
Heating Degree Days 35    
Moisture  
Dew Point 10 °F    
Average Humidity 51    
Maximum Humidity 75    
Minimum Humidity 16    
Precipitation  
Precipitation 0.00 in - - ()
Sea Level Pressure  
Sea Level Pressure 29.96 in    
Wind  
Wind Speed 21 mph (WNW)    
Max Wind Speed 37 mph    
Max Gust Speed 56 mph    
Visibility 9 miles    
Events Snow    
Averages and records for this station are not official NWS values.
T = Trace of Precipitation, MM = Missing Value Source: NWS Daily Summary

Daily Weather History Graph

Daily Weather History Graph

Search for Another Location

Airport:

Trip Planner

Search our weather history database for the weather conditions in past years. The results will help you decide how hot, cold, wet, or windy it might be!

Date:

Astronomy

Dec. 22, 2012 Rise Set
Actual Time 7:34 AM EST 5:14 PM EST
Civil Twilight 7:05 AM EST 5:43 PM EST
Nautical Twilight 6:33 AM EST 6:15 PM EST
Astronomical Twilight 6:01 AM EST 6:47 PM EST
Moon 1:27 PM EST (12/22) 2:23 AM EST (12/22)
Length of Visible Light 10h 38m
Length of Day
9h 40m
Waxing Gibbous, 73% of the Moon is Illuminated
Dec 22
Waxing Gibbous
Dec 28
Full
Jan 4
Last Quarter
Jan 11
New
Jan 18
First Quarter

Hourly Weather History & Observations

Time (EST) Temp. Windchill Dew Point Humidity Pressure Visibility Wind Dir Wind Speed Gust Speed Precip Events Conditions
12:15 AM 24.3 °F 5.6 °F 16.7 °F 73% 29.71 in 4.0 mi WNW 36.8 mph 50.6 mph N/A Snow Light Snow
12:35 AM 23.9 °F 6.4 °F 16.7 °F 74% 29.75 in 4.0 mi WNW 31.1 mph 56.4 mph N/A Snow Light Snow
12:55 AM 23.9 °F 8.8 °F 16.3 °F 73% 29.76 in 7.0 mi NW 21.9 mph 41.4 mph N/A Snow Light Snow
1:15 AM 24.3 °F 10.8 °F 16.3 °F 72% 29.78 in 10.0 mi WNW 17.3 mph 31.1 mph N/A Snow Light Snow
1:35 AM 24.4 °F 7.1 °F 16.3 °F 71% 29.77 in 10.0 mi WNW 31.1 mph 50.6 mph N/A Snow Light Snow
1:55 AM 23.9 °F 9.9 °F 15.8 °F 71% 29.79 in 10.0 mi WNW 18.4 mph 38.0 mph N/A Snow Light Snow
2:15 AM 23.9 °F 6.9 °F 15.8 °F 71% 29.79 in 10.0 mi WNW 28.8 mph 36.8 mph N/A Snow Light Snow
2:35 AM 23.4 °F 9.2 °F 15.4 °F 72% 29.82 in 10.0 mi NW 18.4 mph 31.1 mph N/A Snow Light Snow
2:55 AM 23.4 °F 9.6 °F 15.4 °F 72% 29.83 in 10.0 mi WNW 17.3 mph 42.6 mph N/A Snow Light Snow
3:15 AM 23.0 °F 9.2 °F 15.4 °F 73% 29.84 in 7.0 mi NW 17.3 mph 40.3 mph N/A Snow Light Snow
3:35 AM 23.0 °F 9.2 °F 15.3 °F 72% 29.85 in 7.0 mi WNW 17.3 mph 29.9 mph N/A Snow Light Snow
4:15 AM 23.0 °F 6.9 °F 15.6 °F 73% 29.86 in 7.0 mi WNW 24.2 mph 41.4 mph N/A Snow Light Snow
4:35 AM 23.0 °F 8.3 °F 16.0 °F 74% 29.87 in 5.0 mi WNW 19.6 mph 42.6 mph N/A Snow Light Snow
4:55 AM 23.0 °F 8.7 °F 16.2 °F 75% 29.88 in 7.0 mi WNW 18.4 mph 35.7 mph N/A Snow Light Snow
5:15 AM 23.0 °F 11.1 °F 15.6 °F 73% 29.90 in 10.0 mi NW 12.7 mph 33.4 mph N/A Snow Light Snow
5:35 AM 22.8 °F 7.4 °F 15.6 °F 74% 29.91 in 10.0 mi WNW 21.9 mph 41.4 mph N/A Snow Light Snow
5:55 AM 22.5 °F 11.7 °F 15.4 °F 74% 29.93 in 7.0 mi WNW 10.4 mph 27.6 mph N/A Snow Light Snow
6:15 AM 22.1 °F 5.7 °F 14.9 °F 74% 29.93 in 7.0 mi WNW 24.2 mph 40.3 mph N/A Snow Light Snow
6:35 AM 21.9 °F 6.5 °F 14.7 °F 74% 29.94 in 10.0 mi WNW 20.7 mph 32.2 mph N/A Snow Light Snow
6:55 AM 21.7 °F 5.6 °F 14.5 °F 74% 29.96 in 10.0 mi WNW 23.0 mph 32.2 mph N/A Snow Light Snow
7:15 AM 21.6 °F 7.3 °F 14.0 °F 73% 29.97 in 10.0 mi NW 17.3 mph 33.4 mph N/A Snow Light Snow
7:35 AM 21.6 °F 6.5 °F 13.6 °F 72% 29.98 in 10.0 mi WNW 19.6 mph 43.7 mph N/A   Overcast
7:55 AM 21.2 °F 5.2 °F 13.5 °F 72% 29.99 in 10.0 mi NW 21.9 mph 48.3 mph N/A   Overcast
8:15 AM 21.6 °F 1.9 °F 13.5 °F 71% 29.98 in 10.0 mi WNW 36.8 mph 46.0 mph N/A   Mostly Cloudy
8:35 AM 21.7 °F 3.2 °F 13.1 °F 69% 29.99 in 10.0 mi WNW 32.2 mph 44.9 mph N/A   Scattered Clouds
8:55 AM 21.9 °F 3.7 °F 13.1 °F 69% 29.99 in 10.0 mi WNW 31.1 mph 42.6 mph N/A   Clear
9:15 AM 22.1 °F 6.4 °F 13.1 °F 68% 30.01 in 10.0 mi WNW 21.9 mph 35.7 mph N/A   Clear
9:35 AM 22.6 °F 5.8 °F 12.9 °F 66% 30.01 in 10.0 mi WNW 26.5 mph 36.8 mph N/A   Clear
9:55 AM 23.2 °F 6.8 °F 13.1 °F 65% 30.01 in 10.0 mi WNW 25.3 mph 39.1 mph N/A   Clear
10:15 AM 24.6 °F 8.5 °F 12.2 °F 59% 30.02 in 10.0 mi WNW 26.5 mph 41.4 mph N/A   Clear
10:35 AM 25.5 °F 10.0 °F 12.0 °F 57% 30.02 in 10.0 mi WNW 25.3 mph 36.8 mph N/A   Clear
10:55 AM 26.6 °F 10.8 °F 11.7 °F 53% 30.02 in 10.0 mi WNW 27.6 mph 38.0 mph N/A   Clear
11:15 AM 28.2 °F 12.5 °F 10.8 °F 48% 30.02 in 10.0 mi WNW 29.9 mph 38.0 mph N/A   Clear
11:35 AM 29.5 °F 15.0 °F 10.0 °F 44% 30.01 in 10.0 mi WNW 26.5 mph 35.7 mph N/A   Clear
11:55 AM 30.7 °F 19.6 °F 9.9 °F 42% 30.01 in 10.0 mi WNW 16.1 mph 34.5 mph N/A   Clear
12:15 PM 32.0 °F 20.8 °F 8.4 °F 37% 30.00 in 10.0 mi NW 17.3 mph 36.8 mph N/A   Clear
12:35 PM 33.1 °F 21.2 °F 7.2 °F 34% 29.98 in 10.0 mi NW 20.7 mph 29.9 mph N/A   Clear
12:55 PM 34.0 °F 23.4 °F 7.5 °F 33% 29.98 in 10.0 mi WNW 17.3 mph 31.1 mph N/A   Clear
1:15 PM 34.3 °F 22.0 °F 6.4 °F 31% 29.97 in 10.0 mi NW 24.2 mph 38.0 mph N/A   Clear
1:35 PM 35.6 °F 25.2 °F 5.4 °F 28% 29.97 in 10.0 mi NW 18.4 mph 29.9 mph N/A   Clear
1:55 PM 36.9 °F 25.1 °F 2.5 °F 24% 29.95 in 10.0 mi NW 25.3 mph 32.2 mph N/A   Clear
2:15 PM 36.7 °F 25.4 °F 4.5 °F 26% 29.96 in 10.0 mi WNW 23.0 mph 32.2 mph N/A   Clear
2:55 PM 38.5 °F 28.9 °F -2.6 °F 18% 29.95 in 10.0 mi NW 18.4 mph 31.1 mph N/A   Clear
3:15 PM 39.2 °F 29.8 °F -4.5 °F 16% 29.94 in 10.0 mi NW 18.4 mph 33.4 mph N/A   Clear
3:35 PM 38.8 °F 31.2 °F -4.4 °F 16% 29.97 in 10.0 mi NW 12.7 mph 35.7 mph N/A   Clear
3:55 PM 37.8 °F 33.3 °F -2.2 °F 18% 29.98 in 10.0 mi West 5.8 mph 10.4 mph N/A   Clear
4:15 PM 37.2 °F 34.7 °F 0.9 °F 22% 30.00 in 10.0 mi ESE 3.5 mph 9.2 mph N/A   Clear
4:35 PM 34.9 °F 30.8 °F 5.7 °F 30% 30.02 in 10.0 mi ESE 4.6 mph - N/A   Clear
4:55 PM 34.3 °F - 6.1 °F 31% 30.02 in 10.0 mi Calm Calm - N/A   Clear
5:15 PM 32.4 °F - 7.2 °F 35% 30.02 in 10.0 mi Calm Calm - N/A   Clear
5:35 PM 33.6 °F 26.8 °F 3.6 °F 28% 30.02 in 10.0 mi West 8.1 mph 23.0 mph N/A   Clear
5:55 PM 31.5 °F 28.1 °F 7.2 °F 36% 30.03 in 10.0 mi SW 3.5 mph - N/A   Clear
6:15 PM 30.7 °F 27.3 °F 8.6 °F 40% 30.03 in 10.0 mi ESE 3.5 mph - N/A   Clear
6:35 PM 30.7 °F - 8.6 °F 40% 30.04 in 10.0 mi Calm Calm - N/A   Clear
6:55 PM 30.9 °F - 8.4 °F 39% 30.04 in 10.0 mi Calm Calm - N/A   Clear
7:15 PM 30.2 °F 25.4 °F 8.8 °F 41% 30.04 in 10.0 mi WSW 4.6 mph - N/A   Clear
7:35 PM 31.3 °F 22.1 °F 7.0 °F 36% 30.04 in 10.0 mi NW 11.5 mph 18.4 mph N/A   Clear
7:55 PM 31.3 °F 21.1 °F 8.1 °F 38% 30.04 in 10.0 mi West 13.8 mph 26.5 mph N/A   Clear
8:15 PM 30.2 °F 19.3 °F 10.2 °F 43% 30.05 in 10.0 mi West 15.0 mph 28.8 mph N/A   Clear
8:35 PM 30.0 °F 20.0 °F 10.6 °F 44% 30.06 in 10.0 mi West 12.7 mph 20.7 mph N/A   Clear
8:55 PM 30.0 °F 18.7 °F 10.2 °F 44% 30.06 in 10.0 mi West 16.1 mph 25.3 mph N/A   Clear
9:15 PM 29.8 °F 18.0 °F 10.4 °F 44% 30.06 in 10.0 mi West 17.3 mph 26.5 mph N/A   Clear
9:35 PM 30.2 °F 18.9 °F 9.3 °F 42% 30.06 in 10.0 mi West 16.1 mph 24.2 mph N/A   Clear
9:55 PM 29.7 °F 19.6 °F 9.5 °F 43% 30.06 in 10.0 mi West 12.7 mph 18.4 mph N/A   Clear
10:15 PM 30.0 °F 19.5 °F 9.0 °F 41% 30.06 in 10.0 mi West 13.8 mph 24.2 mph N/A   Clear
10:35 PM 30.0 °F 21.1 °F 8.8 °F 41% 30.06 in 10.0 mi West 10.4 mph 26.5 mph N/A   Clear
10:55 PM 30.0 °F 21.7 °F 9.1 °F 42% 30.06 in 10.0 mi West 9.2 mph 24.2 mph N/A   Clear
11:35 PM 30.0 °F 21.7 °F 8.8 °F 41% 30.05 in 10.0 mi West 9.2 mph 19.6 mph N/A   Clear
11:55 PM 30.9 °F 21.2 °F 7.3 °F 37% 30.05 in 10.0 mi West 12.7 mph 24.2 mph N/A   Clear